Zurück zum Katalog

FLOCK 4H 32

AktivWissenschaftSSO
NORAD 66735·PAYLOAD·🇺🇸 United States

Gestartet Nov 28, 2025 von Vandenberg Space Force Base

Loading…

Nächste Überflüge (nächste 24 Stunden)

TLE

AktuellSource: CelesTrak SupGP

Epoche: Sep 14, 2026, 14:44 UTC

1 66735C 25276BX  26257.61422454  .00008449  00000+0  38517-3 0  2577
2 66735  97.4151 329.7226 0005896  66.7303 307.0993 15.20700565    13

Verfolge FLOCK 4H 32 in Echtzeit mit AllMySat

Download on the App Store